Wind_Speed
87 80 75 69 64 59 55 52 59 71 70 65 62 60 59 58 58 60 59 59 57 55 54 52 50 50 49 47 46 46 45 45 43 46 48 49 50 49 49 50 51 49 48 51 50 53 50 55 58 62 67 71 73 77
88 84 78 71 67 63 59 54 50 53 61 68 70 70 63 61 60 61 62 60 61 62 61 57 54 53 52 51 49 46 46 46 48 49 50 50 50 52 54 51 50 52 54 53 52 58 58 60 65 70 73 75 79 82
90 84 81 73 71 67 62 59 54 50 51 54 59 67 69 65 64 64 64 65 66 67 64 62 59 56 56 56 54 53 52 52 53 54 54 53 55 54 58 56 54 59 58 57 57 66 65 70 73 74 79 83 84 91
89 86 82 78 73 72 65 60 58 54 52 51 52 57 62 63 63 65 65 64 64 61 58 61 60 59 60 60 60 59 58 58 58 58 57 57 59 58 57 57 57 64 63 62 64 68 72 74 77 80 85 87 92 98
92 88 86 80 77 74 69 64 59 58 55 53 53 52 53 57 61 63 64 63 62 61 60 60 61 64 64 62 63 64 64 65 65 63 60 61 62 63 61 58 61 66 67 67 68 72 75 79 83 87 88 93 100 105
90 88 88 88 83 77 76 71 64 60 58 56 56 55 56 55 56 58 58 58 60 60 60 60 61 62 63 65 67 68 69 69 68 65 61 62 65 63 59 59 68 70 70 73 75 79 83 87 88 91 98 102 106 109
93 90 88 85 86 80 76 75 70 67 64 60 58 59 58 57 58 57 54 58 59 60 60 60 61 63 67 68 69 69 68 64 60 61 60 60 63 64 63 67 72 74 77 81 82 84 88 92 98 102 104 107 113 116
101 93 92 88 85 83 82 79 77 72 69 68 64 62 60 60 59 58 59 60 59 59 58 53 51 57 64 64 67 64 63 62 60 60 60 63 64 69 70 75 79 80 81 85 89 93 97 101 104 107 111 115 116 118
105 100 92 92 89 88 85 83 79 78 76 74 72 69 66 63 58 59 61 62 63 61 57 54 54 58 60 67 68 69 68 66 64 65 68 69 71 75 79 82 85 88 90 94 98 101 104 106 109 112 116 120 119 124
91 101 102 93 90 87 84 82 81 80 81 80 78 76 73 71 70 70 71 70 69 68 63 59 60 62 64 69 71 71 70 72 69 72 77 77 78 85 89 91 92 94 98 101 105 107 110 114 117 120 123 124 123 124
89 94 96 99 95 91 90 88 84 84 85 86 85 84 81 79 79 80 80 80 78 73 69 67 68 70 71 73 75 77 77 78 79 79 84 83 85 93 96 96 98 102 104 107 111 114 117 119 118 118 117 119 121 122
82 85 94 98 98 96 94 93 91 86 87 87 84 86 89 89 88 90 90 87 82 76 71 74 77 79 79 82 84 85 87 87 87 87 89 89 93 97 98 100 103 105 108 111 111 110 113 114 117 119 119 119 118 118
86 83 82 85 94 97 95 93 91 90 89 90 91 92 93 94 96 96 92 86 85 82 80 81 84 86 87 88 89 92 94 93 93 94 95 97 100 101 103 104 107 109 111 111 112 115 114 112 113 114 116 117 115 114
85 87 89 87 85 90 92 93 94 97 95 96 97 97 96 97 97 96 95 92 90 90 88 88 90 91 91 92 93 94 97 98 98 98 100 102 101 101 103 105 108 111 109 111 112 112 111 110 111 113 115 111 111 110
83 87 92 93 86 85 86 89 89 97 95 97 100 100 99 99 99 98 98 97 95 95 93 94 94 94 96 96 98 99 102 102 98 99 101 101 103 105 107 108 108 108 109 110 109 109 109 110 110 110 111 109 106 105
80 82 84 87 90 92 91 91 93 91 94 97 100 103 103 100 100 100 100 100 99 99 99 100 102 102 103 102 102 105 103 101 100 101 102 103 107 108 103 103 106 105 104 104 105 106 108 108 106 106 104 102 101 97
72 74 78 81 85 92 93 92 90 94 92 92 96 102 106 106 107 105 106 107 105 106 104 101 102 103 101 103 105 103 101 101 103 104 108 109 105 107 105 106 104 102 104 106 107 107 105 104 103 99 96 96 92 86
67 70 73 77 80 83 91 94 90 90 97 99 100 100 101 106 108 109 107 106 106 104 103 106 105 106 106 106 104 102 100 101 102 102 105 108 107 104 101 100 103 104 104 105 104 101 100 99 97 93 91 87 84 80
65 69 72 74 77 81 86 89 88 89 92 96 98 97 98 101 104 105 105 105 106 108 110 108 107 107 105 101 101 101 100 99 99 98 98 101 100 99 101 102 102 102 100 100 98 96 94 93 90 87 83 78 76 74
61 63 68 72 77 79 81 83 85 84 87 90 90 93 97 102 101 99 99 100 103 103 102 103 103 101 101 100 98 98 97 96 95 96 100 99 100 99 100 99 99 98 95 92 90 88 87 86 83 79 76 72 70 69
60 63 66 69 69 73 76 77 78 80 80 82 82 85 89 89 92 96 99 101 102 106 105 103 103 100 98 98 98 98 97 95 96 96 98 99 98 100 100 98 92 89 87 85 84 83 82 80 77 74 72 68 66 63
59 60 62 65 65 64 65 68 72 75 77 78 79 79 83 85 87 89 90 92 94 92 92 94 94 95 95 96 98 98 96 96 96 94 93 93 94 92 90 87 85 83 83 81 78 79 78 74 70 68 66 64 61 59
49 55 58 58 58 57 60 62 64 66 70 72 73 76 79 81 81 81 86 91 90 89 92 93 95 98 96 94 93 91 88 87 88 87 85 84 85 84 82 81 78 77 74 73 75 74 71 67 65 63 60 58 57 55
44 46 48 52 55 57 58 58 59 61 63 66 68 70 72 75 76 79 83 89 83 82 83 83 84 84 86 86 87 84 80 78 79 80 80 80 79 78 76 74 73 71 69 70 69 67 65 62 61 58 56 55 53 52
41 43 43 46 49 51 51 53 54 57 60 62 65 66 68 69 69 70 73 76 71 70 71 71 72 73 73 74 74 74 74 74 74 73 76 73 71 70 70 69 69 66 64 63 60 59 58 57 56 55 52 51 51 50
39 41 43 46 48 50 53 55 57 58 59 58 57 55 54 55 56 58 62 60 62 62 62 63 64 65 67 68 68 68 66 66 66 67 69 68 65 63 63 64 62 59 56 54 55 54 53 53 52 51 49 48 48 49
41 43 46 48 50 51 51 51 49 48 47 47 48 49 51 52 54 53 54 57 59 59 59 59 59 59 60 61 61 60 60 60 61 61 60 59 57 55 55 55 55 53 51 51 51 49 49 49 48 47 46 46 46 45
33 34 35 36 36 38 39 41 41 42 44 47 48 46 45 46 47 50 52 52 53 52 53 53 53 53 53 54 54 55 55 54 52 51 49 49 48 49 51 51 51 49 47 46 45 46 46 46 46 45 44 44 44 44
27 29 31 34 35 37 37 37 39 39 40 41 41 41 42 42 44 46 46 45 46 47 48 48 47 47 48 49 49 49 49 49 48 45 46 46 45 47 48 48 48 47 46 44 44 44 45 44 43 44 43 43 43 43
28 30 30 31 31 31 31 33 34 36 37 37 35 36 36 38 41 40 40 41 42 43 43 44 45 45 46 46 45 44 44 44 45 46 46 45 44 44 45 46 46 45 44 43 42 42 42 42 43 43 43 42 42 42
23 24 25 26 27 30 31 31 32 32 32 32 33 35 35 37 38 38 38 38 40 40 40 41 42 43 45 46 47 47 47 46 45 45 45 45 45 45 45 44 43 42 42 42 42 42 42 41 41 41 41 42 42 42
20 22 25 26 25 26 28 30 32 32 30 29 31 32 32 33 36 38 37 39 40 39 40 42 42 42 43 44 45 46 46 45 44 43 43 43 43 43 43 43 42 41 41 42 42 42 41 40 40 41 41 41 40 39
20 21 21 20 20 21 24 28 29 29 28 29 30 29 30 33 36 37 37 37 38 38 38 38 39 40 42 43 42 42 42 43 43 43 42 41 40 40 41 41 41 40 40 39 38 38 38 39 39 39 37 37 37 36
Wind_Direction
201 202 200 199 203 202 203 207 211 213 215 217 217 218 222 224 227 227 231 234 241 245 250 252 254 257 260 261 262 264 268 269 272 276 280 283 286 289 295 299 298 294 294 297 298 294 299 298 298 299 301 303 306 306
203 206 204 203 204 207 204 205 209 211 217 221 224 226 226 226 228 230 230 235 240 246 248 249 250 254 259 262 264 266 268 271 274 277 282 285 286 289 295 297 294 295 298 298 297 295 299 299 300 303 305 306 306 308
207 206 206 206 207 207 213 208 209 214 216 220 222 223 226 228 230 232 234 237 241 242 245 247 249 252 257 260 265 267 269 272 275 280 284 283 287 293 294 292 295 294 296 295 295 297 303 304 305 306 306 306 307 310
211 207 208 208 208 210 211 215 213 215 217 220 222 222 225 227 230 233 235 238 241 242 247 248 251 252 256 260 264 268 272 273 276 280 283 285 289 289 291 296 295 294 294 295 295 298 303 305 306 305 305 306 308 311
208 209 210 211 213 214 214 215 219 220 222 220 223 225 226 231 233 235 238 240 242 246 248 250 253 255 259 263 268 269 272 274 277 280 283 286 288 287 289 293 293 293 294 297 298 298 299 302 304 303 304 306 308 309
214 213 214 214 216 217 218 219 220 223 226 228 229 229 228 230 233 236 239 242 244 247 250 251 254 258 260 263 266 270 272 275 279 277 280 284 285 288 290 289 289 293 296 298 299 301 304 306 305 303 303 306 309 311
216 213 213 214 216 219 220 220 221 224 228 229 232 233 234 236 238 238 241 244 246 249 251 253 256 260 263 265 268 271 274 276 277 277 280 282 283 285 289 291 291 293 296 299 301 301 302 302 303 306 307 307 309 308
213 214 213 214 214 217 223 224 225 226 227 230 230 232 236 238 238 242 245 248 251 252 255 256 261 266 269 271 271 271 270 270 273 276 278 280 285 288 291 291 293 295 296 299 301 303 304 306 308 308 308 308 307 308
212 214 217 218 220 221 223 227 227 228 231 233 235 234 235 236 239 243 244 246 249 252 254 256 258 259 263 266 267 268 268 270 274 276 280 284 286 288 289 292 295 296 299 300 302 304 305 306 307 307 308 307 306 306
214 216 216 220 220 222 224 225 228 232 234 235 236 238 238 239 240 243 245 246 248 250 253 255 258 261 264 266 269 271 272 275 277 280 283 286 288 289 292 293 296 298 301 301 302 303 304 305 306 307 306 305 306 306
212 213 217 219 220 223 225 226 229 231 235 237 239 243 241 242 244 246 249 250 251 254 258 260 262 263 264 267 269 272 274 276 278 281 283 287 289 290 292 294 296 298 298 299 300 302 303 302 303 304 304 303 305 307
221 216 217 217 220 223 225 227 228 232 236 239 241 244 244 243 246 247 249 251 254 256 259 261 263 265 268 270 273 275 276 278 280 282 284 286 286 287 290 293 295 296 296 297 299 302 302 302 302 301 303 304 306 307
224 223 218 219 220 224 226 227 232 234 235 239 241 243 245 245 246 247 251 254 257 258 260 262 264 267 270 271 272 275 277 278 279 281 283 284 284 288 290 292 293 293 295 297 298 300 301 301 302 302 303 305 308 309
223 224 226 223 222 223 225 227 230 233 236 239 242 244 247 250 250 251 253 255 256 260 261 263 267 269 270 272 274 276 278 280 281 283 284 287 290 291 290 290 290 293 296 296 297 298 299 299 301 304 305 307 309 310
223 223 224 226 226 226 227 230 230 230 234 238 242 245 248 250 251 252 255 257 258 260 262 264 265 267 269 272 274 275 277 278 280 283 284 286 288 289 288 289 292 295 295 296 297 298 299 301 303 304 306 309 311 308
223 223 224 223 224 229 231 232 231 232 232 236 239 244 247 251 254 255 256 257 259 260 263 265 267 270 270 272 275 275 275 277 279 283 287 286 284 287 292 293 294 295 296 298 298 299 301 302 304 306 308 308 307 308
225 225 225 225 223 228 231 233 235 234 235 236 239 241 244 248 252 255 258 261 264 266 267 268 271 272 272 273 274 276 278 280 282 283 282 285 287 292 293 293 295 297 297 299 299 300 301 304 306 306 306 306 307 310
226 226 227 228 228 227 230 234 234 236 237 238 241 242 245 246 248 253 257 260 263 266 268 269 271 272 273 275 277 279 280 281 280 281 286 288 289 291 291 293 295 295 296 298 299 301 304 305 304 304 305 306 309 308
225 227 226 228 229 230 231 233 234 237 240 241 242 245 246 246 249 253 256 258 261 264 266 268 271 271 274 278 280 279 280 282 283 285 288 290 290 291 293 294 294 294 296 298 300 302 302 302 302 303 304 309 308 309
221 224 226 225 226 229 232 234 236 237 240 240 242 243 246 250 253 255 257 259 262 265 267 269 271 275 277 278 279 281 282 283 286 288 290 290 290 291 291 292 293 294 296 297 299 299 301 301 302 304 308 308 309 310
219 222 225 227 227 226 229 233 236 238 239 241 242 244 247 249 252 255 257 260 263 266 268 271 274 276 277 279 281 284 285 286 287 288 288 289 290 291 292 292 293 293 296 297 299 302 301 301 303 307 306 309 309 309
219 222 225 228 231 232 231 232 233 237 239 242 245 247 249 251 253 257 259 262 263 265 268 270 273 277 279 281 282 282 283 284 285 285 286 286 286 287 288 290 293 296 297 299 301 298 299 302 305 305 306 308 307 308
219 222 226 229 232 235 237 238 239 240 242 245 247 249 251 254 256 258 261 263 264 268 270 272 275 278 279 279 280 281 282 283 283 284 285 286 287 288 290 292 295 296 297 298 296 299 302 304 304 304 306 306 307 309
222 226 227 230 233 235 237 239 240 243 245 247 249 251 253 255 256 257 259 261 263 267 269 271 274 275 276 277 278 281 282 282 283 284 286 287 288 290 293 294 296 297 297 295 297 300 302 302 303 305 306 307 308 308
221 225 226 229 234 238 239 240 242 243 245 246 247 248 249 252 256 260 262 265 269 269 270 271 272 273 275 276 277 279 281 282 283 285 285 287 288 292 294 294 294 295 295 296 300 300 300 302 304 304 305 306 306 307
219 222 224 225 227 231 235 237 239 241 244 248 252 257 261 264 264 263 265 267 268 270 271 271 272 274 275 277 278 280 281 283 283 284 285 289 292 293 292 292 293 294 296 299 299 300 302 302 301 302 303 305 306 307
221 223 226 228 231 235 241 246 251 255 259 261 261 260 259 259 260 263 266 267 268 269 271 273 275 275 276 278 280 280 281 281 282 284 287 288 290 291 289 289 291 293 297 297 298 299 299 298 299 301 303 304 305 306
232 236 239 242 245 247 248 250 251 252 253 254 256 259 262 264 264 264 264 266 268 271 272 273 275 276 277 278 279 281 283 285 285 286 287 286 287 287 288 289 290 293 294 295 297 298 298 299 301 302 304 305 306 307
238 240 240 240 242 245 247 250 253 255 256 258 259 259 259 262 264 264 266 268 270 272 273 274 275 276 278 280 282 283 285 286 287 287 286 287 290 291 291 293 294 295 296 298 298 299 300 301 302 304 305 306 306 308
235 239 242 245 249 252 254 255 255 255 257 260 264 265 266 268 269 270 272 273 273 275 277 278 280 281 281 281 281 282 284 287 289 290 292 292 292 293 294 294 296 297 299 299 299 299 300 302 303 303 305 306 308 310
244 247 248 249 249 251 255 259 263 266 268 269 270 270 269 269 272 273 275 276 277 277 278 279 282 284 286 288 289 291 291 290 290 290 292 292 293 294 294 295 295 297 297 298 299 301 302 303 304 305 307 308 308 308
244 246 248 251 253 253 257 260 262 263 264 266 266 268 272 275 276 276 277 278 280 283 285 286 287 288 287 287 288 290 290 290 290 291 291 292 292 293 294 295 296 297 298 299 300 301 303 303 304 305 305 306 306 306
245 248 253 256 258 258 260 264 269 272 273 273 275 276 277 276 279 281 283 285 285 285 284 285 287 288 288 289 289 288 289 291 291 292 293 292 292 293 294 295 296 298 298 299 300 301 302 302 303 305 305 305 306 307
Height
10394 10408 10420 10431 10444 10454 10463 10473 10482 10491 10500 10508 10516 10523 10530 10536 10542 10547 10552 10558 10563 10567 10570 10574 10577 10579 10581 10582 10584 10584 10585 10584 10586 10584 10584 10583 10580 10577 10574 10568 10563 10559 10559 10554 10552 10542 10546 10539 10535 10530 10523 10517 10508 10498
10389 10400 10414 10426 10437 10448 10456 10465 10474 10482 10490 10498 10506 10513 10519 10527 10532 10537 10543 10548 10553 10557 10560 10563 10566 10568 10571 10572 10573 10573 10574 10573 10574 10572 10573 10571 10568 10565 10561 10557 10551 10545 10544 10540 10537 10526 10529 10525 10519 10512 10504 10497 10487 10477
10380 10393 10407 10418 10429 10439 10449 10457 10465 10473 10480 10488 10494 10502 10509 10516 10522 10528 10533 10537 10541 10545 10548 10552 10554 10557 10559 10560 10561 10562 10561 10561 10561 10561 10559 10558 10555 10554 10548 10546 10540 10530 10529 10526 10523 10509 10512 10504 10497 10491 10482 10473 10463 10453
10371 10386 10398 10410 10420 10431 10440 10450 10458 10465 10472 10479 10486 10492 10498 10504 10511 10517 10522 10526 10530 10533 10538 10541 10543 10546 10547 10548 10549 10549 10549 10549 10548 10547 10547 10544 10540 10540 10538 10533 10525 10513 10512 10512 10506 10499 10495 10485 10478 10470 10461 10450 10442 10431
10360 10376 10388 10400 10411 10422 10432 10442 10451 10459 10465 10471 10477 10482 10488 10494 10500 10505 10510 10514 10518 10521 10527 10529 10532 10534 10535 10536 10536 10535 10535 10534 10533 10533 10534 10530 10525 10523 10526 10521 10508 10498 10496 10495 10492 10485 10477 10471 10461 10450 10440 10431 10421 10408
10350 10364 10377 10389 10401 10413 10423 10433 10441 10449 10456 10463 10468 10473 10477 10483 10489 10494 10498 10502 10505 10509 10513 10516 10520 10522 10523 10522 10521 10520 10519 10519 10519 10519 10519 10516 10509 10508 10511 10506 10488 10485 10481 10475 10470 10465 10459 10451 10443 10432 10422 10411 10397 10381
10338 10354 10366 10378 10391 10402 10411 10421 10429 10438 10445 10452 10458 10462 10467 10472 10477 10482 10488 10490 10492 10495 10499 10504 10509 10510 10508 10507 10506 10505 10504 10504 10504 10505 10506 10500 10494 10493 10492 10484 10475 10473 10467 10461 10455 10447 10441 10432 10420 10411 10398 10385 10372 10356
10327 10341 10355 10366 10377 10389 10399 10408 10418 10426 10434 10439 10444 10449 10456 10462 10467 10473 10474 10475 10477 10480 10485 10494 10498 10495 10490 10491 10488 10488 10489 10489 10492 10490 10490 10485 10483 10475 10473 10463 10458 10454 10449 10443 10435 10426 10415 10403 10393 10382 10371 10359 10346 10330
10312 10327 10342 10354 10365 10377 10387 10397 10406 10414 10420 10425 10430 10436 10442 10450 10457 10458 10456 10457 10459 10466 10473 10482 10484 10481 10480 10472 10468 10468 10470 10473 10477 10477 10472 10469 10467 10458 10448 10445 10438 10432 10428 10421 10413 10402 10392 10382 10371 10358 10344 10332 10320 10306
10300 10315 10328 10341 10353 10364 10374 10384 10392 10399 10405 10410 10414 10420 10431 10439 10440 10437 10435 10440 10444 10450 10461 10469 10469 10466 10463 10456 10452 10449 10454 10454 10458 10458 10451 10452 10448 10434 10427 10422 10417 10411 10404 10396 10387 10378 10369 10357 10345 10332 10318 10305 10290 10276
10285 10298 10313 10326 10338 10349 10360 10368 10376 10381 10384 10389 10399 10408 10418 10422 10421 10418 10417 10422 10429 10439 10448 10454 10453 10450 10446 10442 10438 10435 10438 10438 10439 10440 10432 10435 10429 10410 10402 10401 10398 10391 10382 10373 10364 10356 10346 10333 10323 10309 10294 10278 10266 10250
10266 10282 10297 10310 10322 10332 10343 10352 10361 10366 10374 10380 10387 10389 10396 10399 10399 10396 10399 10406 10416 10427 10436 10434 10431 10428 10430 10425 10422 10423 10421 10421 10423 10422 10419 10417 10406 10397 10392 10386 10379 10371 10362 10353 10345 10334 10320 10308 10295 10282 10267 10254 10241 10223
10250 10263 10278 10292 10305 10316 10325 10338 10345 10352 10357 10361 10362 10365 10371 10376 10377 10379 10387 10395 10401 10409 10412 10413 10413 10410 10409 10409 10406 10402 10400 10402 10401 10402 10399 10391 10381 10378 10372 10364 10355 10345 10338 10331 10318 10305 10294 10282 10267 10252 10239 10226 10215 10199
10233 10246 10260 10273 10285 10297 10309 10320 10328 10334 10339 10340 10341 10346 10350 10352 10359 10370 10375 10381 10384 10384 10390 10392 10392 10391 10390 10387 10384 10383 10379 10378 10378 10378 10372 10366 10361 10354 10346 10337 10328 10323 10317 10304 10290 10279 10266 10254 10243 10225 10209 10199 10188 10173
10217 10228 10241 10254 10266 10279 10289 10297 10305 10313 10318 10322 10325 10326 10330 10335 10342 10348 10352 10358 10363 10365 10365 10367 10369 10369 10367 10364 10363 10360 10355 10354 10354 10350 10347 10343 10335 10325 10317 10310 10307 10298 10286 10274 10263 10252 10239 10227 10215 10201 10185 10174 10162 10148
10201 10212 10224 10236 10248 10260 10267 10274 10280 10292 10297 10304 10308 10309 10312 10317 10321 10325 10330 10334 10337 10339 10342 10344 10343 10343 10342 10340 10339 10334 10331 10329 10328 10326 10321 10314 10303 10294 10294 10288 10277 10267 10258 10248 10236 10224 10214 10201 10189 10178 10165 10151 10139 10127
10188 10198 10207 10217 10228 10239 10247 10252 10266 10272 10281 10288 10292 10295 10297 10298 10300 10303 10306 10308 10311 10312 10314 10317 10317 10313 10314 10311 10309 10307 10308 10308 10305 10299 10290 10281 10276 10271 10265 10256 10245 10237 10228 10218 10208 10197 10186 10175 10164 10154 10144 10128 10118 10108
10173 10182 10193 10201 10211 10221 10226 10235 10246 10251 10260 10265 10268 10271 10276 10280 10282 10286 10287 10288 10291 10290 10290 10291 10291 10288 10284 10280 10282 10286 10286 10280 10273 10269 10263 10253 10247 10240 10233 10226 10218 10209 10200 10191 10179 10170 10161 10152 10141 10132 10121 10110 10100 10088
10155 10163 10173 10183 10192 10200 10208 10215 10225 10232 10237 10242 10246 10251 10256 10260 10264 10267 10268 10269 10269 10269 10270 10267 10264 10259 10258 10262 10261 10255 10251 10251 10248 10244 10236 10227 10219 10213 10207 10199 10192 10183 10175 10164 10156 10148 10140 10130 10119 10110 10101 10093 10082 10071
10138 10148 10154 10163 10173 10181 10187 10194 10201 10210 10217 10220 10225 10230 10236 10238 10240 10242 10244 10246 10246 10247 10246 10239 10236 10239 10237 10232 10230 10227 10225 10223 10222 10219 10208 10200 10190 10185 10177 10170 10165 10157 10150 10142 10134 10126 10119 10108 10097 10089 10082 10074 10065 10055
10125 10132 10138 10143 10152 10161 10170 10177 10185 10190 10195 10201 10204 10208 10212 10216 10218 10222 10224 10223 10224 10223 10217 10217 10214 10210 10208 10206 10204 10203 10200 10199 10196 10192 10185 10177 10167 10157 10148 10141 10139 10131 10125 10117 10111 10104 10093 10084 10077 10071 10062 10054 10047 10040
10111 10119 10125 10131 10137 10145 10154 10161 10167 10170 10175 10179 10184 10187 10190 10193 10195 10197 10197 10198 10194 10193 10195 10191 10189 10188 10186 10183 10181 10178 10177 10175 10170 10164 10158 10153 10143 10134 10126 10120 10116 10110 10101 10096 10092 10081 10072 10066 10061 10053 10045 10038 10031 10025
10104 10107 10112 10119 10126 10133 10138 10143 10148 10154 10158 10160 10163 10166 10168 10170 10172 10173 10174 10168 10166 10172 10171 10171 10169 10167 10165 10160 10156 10154 10154 10151 10144 10138 10132 10125 10118 10111 10105 10100 10096 10091 10086 10077 10067 10062 10056 10050 10044 10037 10030 10023 10016 10009
10095 10100 10106 10109 10113 10117 10121 10128 10134 10138 10140 10142 10145 10148 10149 10150 10150 10151 10150 10142 10148 10154 10153 10153 10152 10149 10144 10140 10136 10131 10129 10126 10120 10113 10107 10100 10094 10090 10086 10081 10076 10070 10066 10058 10051 10045 10039 10033 10026 10021 10015 10007 10000 9994
10086 10089 10095 10099 10101 10105 10109 10113 10117 10120 10122 10123 10124 10126 10127 10129 10132 10135 10133 10128 10136 10136 10135 10133 10129 10125 10122 10118 10114 10111 10108 10104 10097 10092 10082 10080 10078 10074 10067 10061 10055 10051 10047 10040 10035 10028 10022 10016 10010 10005 9999 9992 9986 9980
10074 10078 10082 10085 10089 10092 10093 10095 10097 10099 10102 10106 10110 10114 10118 10120 10120 10118 10113 10115 10112 10111 10111 10109 10107 10107 10103 10099 10095 10090 10087 10082 10077 10073 10065 10062 10060 10057 10051 10042 10037 10033 10028 10024 10018 10012 10007 10001 9995 9990 9985 9979 9972 9966
10064 10067 10071 10074 10076 10079 10081 10085 10089 10092 10095 10097 10098 10099 10099 10099 10098 10099 10099 10095 10093 10092 10092 10091 10090 10087 10083 10078 10075 10072 10069 10065 10061 10056 10052 10047 10043 10039 10033 10027 10021 10017 10012 10008 10003 9997 9992 9987 9982 9976 9971 9966 9960 9954
10060 10063 10066 10069 10071 10074 10075 10077 10078 10080 10080 10079 10080 10082 10085 10085 10085 10082 10079 10078 10078 10077 10075 10073 10070 10068 10065 10061 10058 10054 10049 10046 10043 10039 10036 10031 10027 10021 10015 10010 10005 10002 9998 9993 9988 9983 9978 9973 9967 9962 9957 9952 9947 9941
10054 10055 10057 10058 10059 10061 10063 10065 10065 10066 10067 10068 10068 10070 10069 10069 10067 10065 10065 10064 10062 10059 10057 10055 10054 10051 10047 10044 10041 10036 10032 10028 10025 10022 10018 10014 10011 10005 9999 9995 9991 9987 9982 9978 9973 9969 9964 9959 9953 9948 9943 9938 9933 9928
10044 10045 10047 10049 10051 10053 10053 10053 10053 10053 10053 10054 10055 10055 10055 10053 10050 10050 10049 10048 10046 10043 10041 10038 10035 10032 10029 10026 10023 10021 10017 10013 10009 10005 10001 9997 9994 9990 9986 9981 9976 9972 9967 9963 9959 9955 9950 9946 9940 9935 9930 9925 9920 9915
10037 10038 10039 10040 10041 10041 10040 10041 10041 10040 10041 10042 10042 10040 10040 10039 10037 10035 10034 10032 10029 10028 10027 10025 10021 10016 10013 10009 10005 10003 10000 9997 9994 9990 9986 9981 9978 9974 9970 9966 9962 9958 9954 9949 9945 9941 9936 9931 9926 9922 9917 9912 9907 9903
10029 10029 10030 10031 10032 10033 10031 10030 10030 10030 10031 10031 10029 10028 10027 10026 10023 10022 10021 10018 10016 10014 10011 10008 10005 10003 10000 9997 9994 9990 9986 9983 9979 9975 9972 9968 9963 9959 9955 9951 9947 9943 9940 9936 9931 9926 9922 9917 9913 9909 9905 9900 9896 9892
10022 10022 10022 10023 10024 10024 10023 10021 10020 10020 10020 10019 10018 10018 10016 10013 10011 10008 10006 10004 10002 10000 9998 9995 9992 9989 9986 9982 9979 9975 9971 9967 9963 9960 9957 9953 9949 9946 9942 9937 9933 9930 9925 9921 9917 9913 9909 9905 9901 9897 9893 9889 9885 9881